Regional Weather Roundup
Issued by NWS

Home | Current Version | Previous Version | Graphics & Text | Print | Product List | Glossary On
Versions: 1 2 3 4 5 6 7 8 9 10 11 12 13 14 15 16 17 18 19 20 21 22 23 24 25 26 27 28 29 30 31 32 33 34 35 36 37 38 39 40 41 42 43 44 45 46 47 48 49 50
000
ASUS45 KCYS 231110
RWRWY

WYOMING REGIONAL WEATHER ROUNDUP
NATIONAL WEATHER SERVICE CHEYENNE WY
500 AM MDT WED JUL 23 2014

NOTE:  "FAIR" INDICATES FEW OR NO CLOUDS BELOW 12,000 FEET
WITH NO SIGNIFICANT WEATHER AND/OR OBSTRUCTIONS TO VISIBILITY.

WYZ001-231200-
YELLOWSTONE NATIONAL PARK

CITY           SKY/WX    TMP DP  RH WIND       PRES   REMARKS
LK YELLOWSTONE   N/A     46  41  82 VRB3      30.43R
W YELLOWSTONE  NOT AVBL

$$
WYZ002>013-054>058-071-098>099-231200-
NORTHERN WYOMING

CITY           SKY/WX    TMP DP  RH WIND       PRES   REMARKS
JACKSON        PTCLDY    46  39  76 N6        30.33S
CODY           PTCLDY    63  45  51 N5        30.23F
GREYBULL       PTCLDY    62  51  67 NW5       30.22R
WORLAND        PTCLDY    60  48  64 SE5       30.20F
SHERIDAN       CLEAR     68  56  65 SE15      30.20F
BUFFALO        CLEAR     62  56  80 S10       30.30F
GILLETTE       CLEAR     64  55  72 SE14      30.27F
HULETT         FAIR      64  55  72 MISG      30.30
NEWCASTLE      FAIR      68  54  60 MISG      30.33

$$
WYZ014>020-022>026-101>103-231200-
CENTRAL WYOMING

CITY           SKY/WX    TMP DP  RH WIND       PRES   REMARKS
BIG PINEY      PTCLDY    47  32  56 E5        30.38S
PINEDALE       MOSUNNY   43  37  81 NW6       30.39S
DUBOIS         FAIR      50  32  50 NW10      30.41S
LANDER         CLEAR     66  36  32 W7        30.28S
RIVERTON       CLEAR     66  53  63 E13       30.29R
CASPER         CLEAR     58  56  93 NW3       30.31S
DOUGLAS        CLEAR     65  58  78 SE10      30.31R

$$
WYZ021-027>030-104>119-231200-
SOUTHERN WYOMING

CITY           SKY/WX    TMP DP  RH WIND       PRES   REMARKS
EVANSTON       CLEAR     62  27  26 SE7       30.36R
KEMMERER       MOSUNNY   54  32  43 N12       30.38S
FORT BRIDGER   FAIR      61  27  26 CALM      30.38S
ROCK SPRINGS   PTCLDY    67  22  18 SE5       30.34S
DIXON          FAIR      56  31  38 E7        30.38R
RAWLINS        CLEAR     55  34  45 SW3       30.38R
SARATOGA       FAIR      55  41  58 CALM      30.40R
LARAMIE        CLEAR     59  57  93 S14       30.43F FOG
CHEYENNE       CLOUDY    63  60  90 S8        30.39S
TORRINGTON     CLOUDY    67  63  87 E13       30.31R
PINE BLUFFS    CLOUDY    64  61  88 SE7       30.35R

$$


USA.gov is the U.S. government's official web portal to all federal, state and local government web resources and services.